Weather History for VEPT - October, 2013

Change the Weather History Date:

Tuesday, October 1, 2013

  Actual Average Record
Temperature  
Mean Temperature 80 °F -  
Max Temperature 84 °F 87 °F 96 °F (2012)
Min Temperature 76 °F 78 °F 73 °F (1999)
Cooling Degree Days 15    
Growing Degree Days 30 (Base 50)    
Moisture  
Dew Point 72 °F    
Average Humidity 71    
Maximum Humidity 83    
Minimum Humidity 63    
Precipitation  
Precipitation 0.00 in - - ()
Sea Level Pressure  
Sea Level Pressure 29.69 in    
Wind  
Wind Speed 9 mph ()    
Max Wind Speed 16 mph    
Max Gust Speed -    
Visibility 2.1 miles    
Events Rain    
Averages and records for this station are not official NWS values.
T = Trace of Precipitation, MM = Missing Value Source: Averaged Metar Reports

Daily Weather History Graph

Daily Weather History Graph

Search for Another Location

Airport or City:

Trip Planner

Search our weather history database for the weather conditions in past years. The results will help you decide how hot, cold, wet, or windy it might be!

Date:

Astronomy

Oct. 01, 2013 Rise Set
Actual Time 5:41 AM IST 5:36 PM IST
Civil Twilight 5:18 AM IST 5:59 PM IST
Nautical Twilight 4:52 AM IST 6:26 PM IST
Astronomical Twilight 4:25 AM IST 6:52 PM IST
Moon 2:08 AM IST (10/1) 3:07 PM IST (10/1)
Length of Visible Light 12h 40m
Length of Day
11h 54m
Waning Crescent, 15% of the Moon is Illuminated
Oct 1
Waning Crescent
Oct 5
New
Oct 12
First Quarter
Oct 19
Full
Oct 27
Last Quarter

Hourly Weather History & Observations

Time (IST) Temp. Heat Index Dew Point Humidity Pressure Visibility Wind Dir Wind Speed Gust Speed Precip Events Conditions
2:30 AM 78 °F - 74 °F 83% 29.68 in 1 mi East 5.8 mph - -   Haze
5:30 AM 78 °F - 72 °F 78% 29.71 in 1 mi East 6.9 mph - -   Partly Cloudy
8:20 AM 80.6 °F 84.6 °F 71.6 °F 74% 29.77 in 1.9 mi East 11.5 mph - N/A   Haze
8:30 AM 80 °F - 71 °F 68% 29.57 in 1 mi East 11.5 mph - - Rain Light Rain
10:20 AM 82.4 °F 87.2 °F 71.6 °F 70% 29.77 in 2.5 mi East 11.5 mph - N/A   Haze
11:20 AM 82.4 °F 88.2 °F 73.4 °F 74% 29.74 in 2.5 mi East 11.5 mph - N/A   Haze
11:30 AM 83 °F - 73 °F 64% 29.60 in 2 mi East 12.7 mph - -   Haze
12:20 PM 82.4 °F 88.2 °F 73.4 °F 74% 29.71 in 2.5 mi ESE 13.8 mph - N/A   Haze
1:20 PM 84.2 °F 90.9 °F 73.4 °F 70% 29.71 in 2.5 mi East 13.8 mph - N/A   Haze
2:20 PM 84.2 °F 89.6 °F 71.6 °F 66% 29.65 in 2.5 mi East 16.1 mph - N/A   Haze
2:30 PM 83 °F - 72 °F 63% 29.70 in 2 mi ESE 11.5 mph - -   Haze
3:20 PM 84.2 °F 89.6 °F 71.6 °F 66% 29.65 in 2.5 mi East 16.1 mph - N/A   Haze
4:20 PM 84.2 °F 89.6 °F 71.6 °F 66% 29.65 in 3.1 mi ENE 11.5 mph - N/A   Haze
5:20 PM 82.4 °F 87.2 °F 71.6 °F 70% 29.65 in 3.1 mi East 9.2 mph - N/A   Haze
5:30 PM 82 °F - 72 °F 64% 29.68 in 2 mi East 3.5 mph - -   Haze
6:20 PM 80.6 °F 84.6 °F 71.6 °F 74% 29.68 in 3.1 mi East 5.8 mph - N/A   Haze
7:20 PM 80.6 °F 85.4 °F 73.4 °F 79% 29.68 in 3.1 mi East 6.9 mph - N/A   Haze
8:20 PM 80.6 °F 84.6 °F 71.6 °F 74% 29.74 in 2.2 mi East 11.5 mph - N/A   Haze
8:30 PM 80 °F - 72 °F 69% 29.75 in 1 mi East 4.6 mph - -   Haze
11:30 PM 80 °F - 74 °F 78% 29.78 in 1 mi East 5.8 mph - -   Haze